CES1213 ZPDL-ZPPP

Flight info

Callsign CES1213
Flight time N/A
Altitude 22600
Route UPGE9Z UPGED W162 BUBSU GUL11A
Aircraft B737/M-SDE2E3FGHIRWXY/LB1

Departure

Time 2026-05-08 09:38
Airport Dali Fengyi Airport (ZPDL)

Arrival

Time N/A
Airport Kunming Changshui International Airport (ZPPP)
Time Latitude Longitude Altitude Speed Heading
2026-05-08 09:34 25.64946 100.32069 7088 ft 0 kts 350°
2026-05-08 09:35 25.65022 100.32053 7088 ft 22 kts 349°
2026-05-08 09:35 25.65032 100.31932 7088 ft 17 kts 262°
2026-05-08 09:35 25.65108 100.31854 7088 ft 17 kts 343°
2026-05-08 09:35 25.65314 100.31804 7088 ft 47 kts 351°
2026-05-08 09:36 25.65652 100.31732 7089 ft 49 kts 347°
2026-05-08 09:36 25.65974 100.31661 7090 ft 36 kts 349°
2026-05-08 09:36 25.66114 100.31663 7090 ft 8 kts 14°
2026-05-08 09:36 25.66136 100.31635 7090 ft 4 kts 228°
2026-05-08 09:37 25.66101 100.31632 7090 ft 5 kts 168°
2026-05-08 09:37 25.66049 100.31644 7089 ft 20 kts 168°
2026-05-08 09:37 25.65568 100.31751 7089 ft 117 kts 169°
2026-05-08 09:37 25.64519 100.31978 7230 ft 181 kts 170°
2026-05-08 09:38 25.63245 100.32201 8208 ft 191 kts 173°
2026-05-08 09:38 25.61971 100.32378 9306 ft 194 kts 171°
2026-05-08 09:38 25.60608 100.32744 10141 ft 212 kts 167°
2026-05-08 09:38 25.59147 100.33144 11065 ft 224 kts 169°
2026-05-08 09:39 25.57626 100.33504 12146 ft 228 kts 172°
2026-05-08 09:39 25.56066 100.33849 13198 ft 232 kts 172°
2026-05-08 09:39 25.54482 100.34197 14214 ft 238 kts 173°
2026-05-08 09:39 25.52817 100.34338 15049 ft 245 kts 194°
2026-05-08 09:40 25.51193 100.33729 15840 ft 255 kts 208°
2026-05-08 09:40 25.49519 100.32967 16643 ft 272 kts 205°
2026-05-08 09:40 25.47658 100.32315 17405 ft 290 kts 201°
2026-05-08 09:40 25.45651 100.31746 18188 ft 306 kts 199°
2026-05-08 09:41 25.43541 100.31196 18974 ft 320 kts 198°
2026-05-08 09:41 25.41339 100.30626 19775 ft 333 kts 199°
2026-05-08 09:41 25.39019 100.30015 20496 ft 347 kts 199°
2026-05-08 09:41 25.36651 100.29383 21200 ft 360 kts 199°
2026-05-08 09:42 25.34161 100.28715 21857 ft 374 kts 199°
2026-05-08 09:42 25.31591 100.28030 22469 ft 386 kts 198°
2026-05-08 09:42 25.28921 100.27455 22797 ft 404 kts 194°
2026-05-08 09:42 25.26061 100.26995 22832 ft 419 kts 192°
2026-05-08 09:43 25.23114 100.26603 22835 ft 423 kts 192°
2026-05-08 09:43 25.20200 100.26244 22830 ft 423 kts 191°
2026-05-08 09:43 25.17286 100.25887 22831 ft 423 kts 191°
2026-05-08 09:43 25.14365 100.25522 22830 ft 421 kts 191°
2026-05-08 09:44 25.11416 100.25310 22834 ft 427 kts 185°
2026-05-08 09:44 25.08416 100.25587 22829 ft 433 kts 176°
2026-05-08 09:44 25.05486 100.26313 22828 ft 438 kts 170°
2026-05-08 09:44 25.02568 100.27477 22831 ft 445 kts 161°
2026-05-08 09:45 24.99873 100.29144 22829 ft 452 kts 151°
2026-05-08 09:45 24.97390 100.31368 22822 ft 459 kts 142°
2026-05-08 09:45 24.95214 100.33958 22817 ft 467 kts 134°
2026-05-08 09:45 24.93352 100.36880 22816 ft 471 kts 125°
2026-05-08 09:46 24.91964 100.40163 22817 ft 478 kts 115°
2026-05-08 09:46 24.90899 100.43628 22820 ft 479 kts 111°
2026-05-08 09:46 24.90075 100.47194 22827 ft 484 kts 103°
2026-05-08 09:46 24.89821 100.50896 22835 ft 488 kts 92°
2026-05-08 09:47 24.89716 100.54594 22839 ft 484 kts 97°
2026-05-08 09:47 24.89287 100.58264 22841 ft 485 kts 102°
2026-05-08 09:47 24.88607 100.61870 22849 ft 483 kts 106°
2026-05-08 09:47 24.87782 100.65430 22845 ft 480 kts 109°
2026-05-08 09:48 24.86858 100.69014 22853 ft 480 kts 110°
2026-05-08 09:48 24.85906 100.72511 22855 ft 481 kts 110°
2026-05-08 09:48 24.84914 100.76067 22862 ft 479 kts 111°
2026-05-08 09:48 24.83932 100.79550 22858 ft 481 kts 111°
2026-05-08 09:49 24.82947 100.83036 22855 ft 480 kts 111°
2026-05-08 09:49 24.81948 100.86568 22855 ft 481 kts 111°
2026-05-08 09:49 24.80959 100.90083 22848 ft 481 kts 110°
2026-05-08 09:49 24.79972 100.93591 22837 ft 482 kts 111°
2026-05-08 09:50 24.78988 100.97095 22828 ft 481 kts 110°
2026-05-08 09:50 24.78008 101.00585 22812 ft 482 kts 110°
2026-05-08 09:50 24.77020 101.04108 22805 ft 482 kts 110°
2026-05-08 09:50 24.76025 101.07661 22813 ft 480 kts 111°
2026-05-08 09:51 24.75053 101.11127 22819 ft 482 kts 110°
2026-05-08 09:51 24.74057 101.14678 22829 ft 481 kts 110°
2026-05-08 09:51 24.73071 101.18185 22833 ft 482 kts 110°
2026-05-08 09:51 24.72092 101.21669 22840 ft 482 kts 110°
2026-05-08 09:52 24.71103 101.25188 22842 ft 482 kts 110°
2026-05-08 09:52 24.70115 101.28702 22841 ft 482 kts 110°
2026-05-08 09:52 24.69122 101.32240 22831 ft 483 kts 110°
2026-05-08 09:52 24.68139 101.35734 22818 ft 482 kts 110°
2026-05-08 09:53 24.67153 101.39234 22805 ft 481 kts 110°
2026-05-08 09:53 24.66156 101.42767 22793 ft 481 kts 110°
2026-05-08 09:53 24.65167 101.46264 22778 ft 480 kts 110°
2026-05-08 09:53 24.64186 101.49734 22767 ft 481 kts 110°
2026-05-08 09:54 24.63286 101.53309 22757 ft 483 kts 105°
2026-05-08 09:54 24.62736 101.56915 22759 ft 485 kts 99°
2026-05-08 09:54 24.62503 101.60637 22758 ft 487 kts 94°
2026-05-08 09:54 24.62486 101.64326 22759 ft 489 kts 90°
2026-05-08 09:55 24.62592 101.68086 22764 ft 489 kts 89°
2026-05-08 09:55 24.62760 101.71804 22774 ft 489 kts 89°
2026-05-08 09:55 24.62949 101.75504 22777 ft 488 kts 88°
2026-05-08 09:55 24.63143 101.79222 22774 ft 490 kts 88°
2026-05-08 09:56 24.63334 101.82970 22776 ft 488 kts 88°
2026-05-08 09:56 24.63512 101.86658 22774 ft 488 kts 89°
2026-05-08 09:56 24.63680 101.90376 22776 ft 489 kts 89°
2026-05-08 09:56 24.63839 101.94089 22771 ft 489 kts 89°
2026-05-08 09:57 24.64144 102.01574 22773 ft 487 kts 89°
2026-05-08 09:57 24.64289 102.05275 22773 ft 488 kts 89°
2026-05-08 09:57 24.64431 102.08976 22771 ft 488 kts 89°
2026-05-08 09:58 24.64575 102.12727 22777 ft 488 kts 89°
2026-05-08 09:58 24.64716 102.16431 22790 ft 487 kts 89°
2026-05-08 09:58 24.64856 102.20126 22788 ft 488 kts 89°
2026-05-08 09:58 24.64996 102.23872 22795 ft 487 kts 89°
2026-05-08 09:59 24.65259 102.27589 22795 ft 490 kts 83°
2026-05-08 09:59 24.65968 102.31185 22812 ft 490 kts 72°
2026-05-08 09:59 24.67336 102.34642 22812 ft 490 kts 60°
2026-05-08 09:59 24.69220 102.37721 22812 ft 488 kts 50°
2026-05-08 10:00 24.71452 102.40528 22827 ft 486 kts 43°
2026-05-08 10:00 24.73975 102.42999 22851 ft 483 kts 36°
2026-05-08 10:00 24.76672 102.45232 22860 ft 480 kts 32°
2026-05-08 10:00 24.79440 102.47324 22878 ft 481 kts 30°
2026-05-08 10:01 24.82253 102.49367 22881 ft 481 kts 30°
2026-05-08 10:01 24.85029 102.51367 22884 ft 481 kts 30°
2026-05-08 10:01 24.87848 102.53410 22887 ft 486 kts 30°
2026-05-08 10:01 24.90748 102.55531 22884 ft 500 kts 30°
2026-05-08 10:02 24.93601 102.57646 22708 ft 498 kts 30°
2026-05-08 10:02 24.96466 102.59797 22282 ft 491 kts 31°
2026-05-08 10:02 24.99251 102.61910 21059 ft 484 kts 31°
2026-05-08 10:02 25.01980 102.63993 20045 ft 470 kts 31°
2026-05-08 10:03 25.04594 102.65997 19376 ft 457 kts 32°
2026-05-08 10:03 25.07254 102.68031 18676 ft 462 kts 31°
2026-05-08 10:03 25.09844 102.70008 17943 ft 451 kts 31°
2026-05-08 10:03 25.12397 102.71963 17193 ft 436 kts 31°
2026-05-08 10:04 25.14877 102.73856 16410 ft 441 kts 32°
2026-05-08 10:04 25.17393 102.75776 15595 ft 435 kts 32°
2026-05-08 10:04 25.19878 102.77673 14925 ft 427 kts 32°
2026-05-08 10:04 25.22222 102.79470 14589 ft 397 kts 32°
2026-05-08 10:05 25.24421 102.81159 14474 ft 376 kts 32°
2026-05-08 10:05 25.26593 102.82822 14286 ft 379 kts 32°
2026-05-08 10:05 25.28709 102.84441 14121 ft 356 kts 32°
2026-05-08 10:05 25.30654 102.85936 13967 ft 332 kts 32°
2026-05-08 10:06 25.32532 102.87379 13797 ft 327 kts 32°
2026-05-08 10:06 25.34386 102.88804 13614 ft 322 kts 32°
2026-05-08 10:06 25.36166 102.90180 13470 ft 303 kts 32°
2026-05-08 10:06 25.37797 102.91606 13325 ft 288 kts 41°
2026-05-08 10:07 25.38956 102.93333 13160 ft 278 kts 67°
2026-05-08 10:07 25.39262 102.95386 12938 ft 271 kts 95°
2026-05-08 10:07 25.38819 102.97400 12535 ft 270 kts 113°
2026-05-08 10:07 25.38141 102.99310 12212 ft 269 kts 113°
2026-05-08 10:08 25.37486 103.01212 11911 ft 263 kts 112°
2026-05-08 10:08 25.36851 103.03099 11619 ft 256 kts 112°
2026-05-08 10:08 25.36244 103.04917 11379 ft 251 kts 112°
2026-05-08 10:08 25.35636 103.06727 11286 ft 246 kts 114°
2026-05-08 10:09 25.34913 103.08360 11222 ft 231 kts 128°
2026-05-08 10:09 25.33721 103.09474 11161 ft 223 kts 161°
2026-05-08 10:09 25.32220 103.09737 11132 ft 214 kts 186°
2026-05-08 10:09 25.30791 103.09465 11128 ft 200 kts 202°
2026-05-08 10:10 25.29700 103.08667 11126 ft 179 kts 224°
2026-05-08 10:10 25.28770 103.07768 10921 ft 182 kts 220°
2026-05-08 10:10 25.27755 103.06882 10594 ft 185 kts 218°
2026-05-08 10:10 25.26747 103.06016 10320 ft 185 kts 218°
2026-05-08 10:11 25.25732 103.05137 10071 ft 182 kts 218°
2026-05-08 10:11 25.24739 103.04276 9827 ft 180 kts 218°
2026-05-08 10:11 25.23760 103.03426 9588 ft 178 kts 218°
2026-05-08 10:11 25.22799 103.02593 9372 ft 173 kts 218°
2026-05-08 10:12 25.21857 103.01776 9124 ft 169 kts 218°
2026-05-08 10:12 25.20969 103.01007 8909 ft 155 kts 219°
2026-05-08 10:12 25.20156 103.00302 8716 ft 143 kts 219°
2026-05-08 10:12 25.19389 102.99637 8529 ft 135 kts 219°
2026-05-08 10:13 25.18652 102.98996 8360 ft 135 kts 219°
2026-05-08 10:13 25.17911 102.98353 8182 ft 136 kts 219°
2026-05-08 10:13 25.17164 102.97705 8007 ft 137 kts 219°
2026-05-08 10:13 25.16407 102.97050 7827 ft 138 kts 219°
2026-05-08 10:14 25.15653 102.96397 7652 ft 138 kts 219°
2026-05-08 10:14 25.14887 102.95728 7465 ft 140 kts 220°
2026-05-08 10:14 25.14118 102.95070 7278 ft 142 kts 221°
2026-05-08 10:14 25.13325 102.94389 7072 ft 147 kts 219°
2026-05-08 10:15 25.12529 102.93707 6912 ft 136 kts 220°